Weather History for KLCG - August, 2013

Change the Weather History Date:

Thursday, August 15, 2013

  Actual Average (KOFK) Record (KOFK)
Temperature  
Mean Temperature 62 °F 73 °F  
Max Temperature 66 °F 85 °F 106 °F (1937)
Min Temperature 59 °F 62 °F 46 °F (1929)
Degree Days  
Heating Degree Days 3 0  
Month to date heating degree days 0  
Since 1 June heating degree days 34  
Since 1 July heating degree days 4  
Cooling Degree Days 0 9  
Month to date cooling degree days 140  
Year to date cooling degree days 701  
Since 1 June cooling degree days 640  
Growing Degree Days 12 (Base 50)    
Moisture  
Dew Point 60 °F    
Average Humidity 93    
Maximum Humidity 97    
Minimum Humidity 86    
Precipitation  
Precipitation 0.07 in 0.12 in 2.05 in (2001)
Month to date precipitation 1.70  
Year to date precipitation 18.98  
Snow  
Snow 0.00 in 0.00 in - ()
Month to date snowfall 0.0  
Since 1 July snowfall 0.0  
Snow Depth -    
Sea Level Pressure  
Sea Level Pressure 30.09 in    
Wind  
Wind Speed 8 mph (ESE)    
Max Wind Speed 15 mph    
Max Gust Speed 17 mph    
Visibility 6 miles    
Events Rain    
T = Trace of Precipitation, MM = Missing Value Source: NWS Daily Summary

Daily Weather History Graph

Daily Weather History Graph

Search for Another Location

Airport or City:

Trip Planner

Search our weather history database for the weather conditions in past years. The results will help you decide how hot, cold, wet, or windy it might be!

Date:

Astronomy

Aug. 15, 2013 Rise Set
Actual Time 6:35 AM CDT 8:28 PM CDT
Civil Twilight 6:05 AM CDT 8:58 PM CDT
Nautical Twilight 5:28 AM CDT 9:35 PM CDT
Astronomical Twilight 4:48 AM CDT 10:14 PM CDT
Moon 3:48 PM CDT (8/15) 12:44 AM CDT (8/15)
Length of Visible Light 14h 53m
Length of Day
13h 52m
Waxing Gibbous, 64% of the Moon is Illuminated
Aug 15
Waxing Gibbous
Aug 20
Full
Aug 28
Last Quarter
Sep 5
New
Sep 12
First Quarter

Hourly Weather History & Observations

Time (CDT) Temp. Dew Point Humidity Pressure Visibility Wind Dir Wind Speed Gust Speed Precip Events Conditions
12:15 AM 61.2 °F 60.1 °F 96% 30.12 in 7.0 mi SE 9.2 mph - N/A Rain Rain
12:35 AM 61.2 °F 60.1 °F 96% 30.12 in 7.0 mi ESE 10.4 mph - N/A Rain Heavy Rain
12:55 AM 61.2 °F 60.1 °F 96% 30.12 in 7.0 mi ESE 11.5 mph - 0.02 in Rain Light Rain
1:15 AM 60.8 °F 59.5 °F 96% 30.12 in 7.0 mi ESE 10.4 mph 17.3 mph 0.01 in Rain Light Rain
1:35 AM 60.3 °F 59.0 °F 96% 30.11 in 7.0 mi East 9.2 mph - 0.01 in Rain Heavy Rain
1:55 AM 60.1 °F 58.8 °F 96% 30.10 in 10.0 mi ESE 8.1 mph - 0.01 in Rain Rain
2:15 AM 60.1 °F 58.8 °F 96% 30.09 in 7.0 mi East 10.4 mph - N/A Rain Heavy Rain
2:35 AM 60.3 °F 59.0 °F 96% 30.09 in 10.0 mi ESE 8.1 mph 16.1 mph N/A Rain Rain
2:55 AM 60.3 °F 59.0 °F 96% 30.08 in 7.0 mi ESE 6.9 mph - N/A Rain Heavy Rain
3:15 AM 60.3 °F 58.6 °F 94% 30.08 in 7.0 mi ESE 8.1 mph - N/A Rain Rain
3:35 AM 60.1 °F 58.6 °F 95% 30.08 in 7.0 mi ESE 3.5 mph - N/A Rain Heavy Rain
3:55 AM 60.3 °F 58.6 °F 94% 30.08 in 7.0 mi East 3.5 mph - N/A Rain Heavy Rain
4:15 AM 60.3 °F 58.6 °F 94% 30.08 in 7.0 mi SE 6.9 mph - N/A Rain Rain
4:35 AM 60.1 °F 58.5 °F 94% 30.08 in 7.0 mi ESE 5.8 mph - N/A Rain Rain
4:55 AM 59.9 °F 58.3 °F 94% 30.08 in 7.0 mi SE 6.9 mph - N/A Rain Rain
5:15 AM 59.9 °F 58.3 °F 94% 30.07 in 7.0 mi SE 9.2 mph - N/A Rain Rain
5:35 AM 59.9 °F 58.3 °F 94% 30.07 in 7.0 mi ESE 6.9 mph - N/A Rain Heavy Rain
5:55 AM 59.9 °F 58.3 °F 94% 30.07 in 7.0 mi SE 9.2 mph - N/A Rain Rain
6:15 AM 59.9 °F 58.5 °F 95% 30.07 in 7.0 mi SE 6.9 mph - N/A Rain Heavy Rain
6:35 AM 59.9 °F 58.5 °F 95% 30.07 in 4.0 mi SE 8.1 mph - N/A Rain Rain
6:55 AM 59.9 °F 58.6 °F 96% 30.07 in 3.0 mi SE 6.9 mph - N/A Rain Heavy Rain
7:15 AM 59.9 °F 59.0 °F 97% 30.06 in 2.5 mi ESE 6.9 mph - N/A Rain Heavy Rain
7:35 AM 60.3 °F 59.2 °F 96% 30.06 in 4.0 mi ESE 9.2 mph - N/A Rain Heavy Rain
7:55 AM 60.6 °F 59.4 °F 96% 30.07 in 4.0 mi SE 9.2 mph - N/A Rain Heavy Rain
8:15 AM 60.8 °F 59.5 °F 96% 30.08 in 4.0 mi SE 8.1 mph - N/A Rain Heavy Rain
8:35 AM 61.2 °F 59.7 °F 95% 30.08 in 4.0 mi SSE 11.5 mph - N/A Rain Heavy Rain
8:55 AM 61.7 °F 59.9 °F 94% 30.08 in 5.0 mi SE 10.4 mph - N/A Rain Heavy Rain
9:15 AM 61.7 °F 59.5 °F 93% 30.08 in 5.0 mi SSE 15.0 mph - N/A Rain Heavy Rain
9:35 AM 61.7 °F 59.5 °F 93% 30.08 in 7.0 mi SSE 10.4 mph - N/A Rain Heavy Rain
9:55 AM 62.1 °F 59.9 °F 93% 30.08 in 5.0 mi SSE 12.7 mph - N/A Rain Heavy Rain
10:15 AM 62.1 °F 59.9 °F 93% 30.07 in 5.0 mi SSE 11.5 mph - N/A Rain Heavy Rain
10:35 AM 62.8 °F 59.9 °F 90% 30.06 in 5.0 mi SE 13.8 mph - N/A Rain Heavy Rain
10:55 AM 63.0 °F 60.1 °F 90% 30.06 in 5.0 mi SE 12.7 mph - N/A Rain Rain
11:15 AM 63.5 °F 60.4 °F 90% 30.07 in 5.0 mi SE 9.2 mph - N/A Rain Heavy Rain
11:35 AM 63.5 °F 60.3 °F 89% 30.07 in - SSE 11.5 mph - N/A Rain Heavy Rain
11:55 AM 63.5 °F 60.4 °F 90% 30.07 in - SSE 9.2 mph - N/A Rain Heavy Rain
12:15 PM 64.4 °F 61.0 °F 89% 30.07 in 5.0 mi SE 9.2 mph - N/A   Overcast
12:35 PM 64.4 °F 61.0 °F 89% 30.07 in 7.0 mi SSE 9.2 mph - N/A   Overcast
12:55 PM 64.6 °F 61.3 °F 89% 30.07 in 7.0 mi SSE 6.9 mph - N/A   Overcast
1:15 PM 65.5 °F 61.3 °F 86% 30.06 in - ESE 4.6 mph - N/A   Overcast
1:35 PM 65.5 °F 61.3 °F 86% 30.07 in - SE 5.8 mph - N/A   Overcast
1:47 PM 64.4 °F 60.8 °F 88% 30.07 in - East 5.8 mph - N/A   Overcast
1:55 PM 65.3 °F 61.3 °F 87% 30.07 in 7.0 mi ESE 5.8 mph - N/A   Overcast
2:15 PM 65.3 °F 61.5 °F 88% 30.07 in 7.0 mi East 5.8 mph - 0.04 in   Overcast
2:35 PM 65.3 °F 61.3 °F 87% 30.07 in 10.0 mi East 6.9 mph - 0.04 in   Overcast
2:55 PM 65.3 °F 61.3 °F 87% 30.07 in 10.0 mi East 6.9 mph - 0.04 in   Overcast
3:15 PM 64.9 °F 61.7 °F 89% 30.07 in 7.0 mi East 5.8 mph - N/A   Overcast
3:35 PM 64.6 °F 61.7 °F 90% 30.07 in 4.0 mi East 5.8 mph - N/A   Overcast
3:55 PM 64.0 °F 61.5 °F 91% 30.06 in 4.0 mi East 6.9 mph - N/A   Overcast
4:15 PM 64.0 °F 61.7 °F 92% 30.06 in 4.0 mi East 8.1 mph - N/A   Overcast
4:35 PM 64.2 °F 61.5 °F 91% 30.06 in 5.0 mi ESE 6.9 mph - N/A   Overcast
4:55 PM 63.9 °F 61.7 °F 93% 30.06 in 3.0 mi East 9.2 mph - N/A   Overcast
5:15 PM 63.5 °F 61.3 °F 93% 30.06 in 2.5 mi East 6.9 mph - N/A   Overcast
5:35 PM 63.5 °F 61.2 °F 92% 30.07 in 4.0 mi East 6.9 mph - N/A   Overcast
5:55 PM 63.5 °F 61.0 °F 91% 30.08 in 3.0 mi East 6.9 mph - N/A   Overcast
6:15 PM 63.5 °F 61.2 °F 92% 30.08 in 3.0 mi East 5.8 mph - N/A   Overcast
6:35 PM 63.3 °F 61.0 °F 92% 30.08 in 4.0 mi East 8.1 mph - N/A   Overcast
6:55 PM 63.0 °F 61.0 °F 93% 30.07 in 4.0 mi East 8.1 mph - N/A   Overcast
7:15 PM 62.6 °F 60.8 °F 94% 30.08 in 5.0 mi East 8.1 mph - N/A   Overcast
7:35 PM 62.6 °F 60.8 °F 94% 30.08 in 7.0 mi East 8.1 mph - N/A   Overcast
7:55 PM 62.6 °F 60.1 °F 91% 30.09 in 7.0 mi ESE 9.2 mph - N/A   Overcast
8:15 PM 62.4 °F 60.1 °F 92% 30.10 in 7.0 mi East 6.9 mph - N/A   Overcast
8:35 PM 62.2 °F 59.9 °F 92% 30.11 in 5.0 mi ESE 4.6 mph - N/A Rain Light Rain
8:55 PM 61.9 °F 59.9 °F 93% 30.12 in 5.0 mi ESE 8.1 mph - N/A   Drizzle
9:15 PM 61.7 °F 59.9 °F 94% 30.12 in 7.0 mi East 4.6 mph - N/A Rain Rain
9:35 PM 61.2 °F 59.7 °F 95% 30.13 in 7.0 mi ESE 5.8 mph - N/A   Overcast
9:55 PM 61.2 °F 59.9 °F 96% 30.13 in 7.0 mi East 3.5 mph - N/A   Overcast
10:15 PM 61.2 °F 59.9 °F 96% 30.14 in 7.0 mi ESE 3.5 mph - N/A   Overcast
10:35 PM 61.2 °F 59.9 °F 96% 30.14 in 7.0 mi Calm Calm - N/A   Overcast
10:55 PM 61.2 °F 59.9 °F 96% 30.14 in 7.0 mi East 4.6 mph - N/A   Overcast
11:15 PM 61.2 °F 59.9 °F 96% 30.14 in 7.0 mi ESE 4.6 mph - N/A   Overcast
11:35 PM 61.0 °F 59.7 °F 96% 30.14 in 7.0 mi East 3.5 mph - N/A   Overcast
11:55 PM 60.8 °F 59.7 °F 96% 30.14 in 7.0 mi ESE 3.5 mph - N/A   Overcast